owner,sensor,date,latitude,longitude,vertical_datum,sea_water_practical_salinity,qcFlag 
DISL,ioos:station:DISL:MHPA:1,2011-09-01T00:00:00Z,30.6671,-87.9365,4.034,6.08,1111122 
DISL,ioos:station:DISL:MHPA:1,2011-09-01T00:30:00Z,30.6671,-87.9365,4.145,6.09,1111122 
DISL,ioos:station:DISL:MHPA:1,2011-09-01T01:00:00Z,30.6671,-87.9365,4.107,6.12,1111122 
DISL,ioos:station:DISL:MHPA:1,2011-09-01T01:30:00Z,30.6671,-87.9365,3.947,6.12,1111122 
DISL,ioos:station:DISL:MHPA:1,2011-09-01T02:00:00Z,30.6671,-87.9365,3.962,6.15,1111122 
DISL,ioos:station:DISL:MHPA:1,2011-09-01T02:30:00Z,30.6671,-87.9365,3.981,6.17,1111122 
DISL,ioos:station:DISL:MHPA:1,2011-09-01T03:00:00Z,30.6671,-87.9365,3.989,6.13,1111122 
DISL,ioos:station:DISL:MHPA:1,2011-09-01T03:30:00Z,30.6671,-87.9365,4.062,6.12,1111122 
DISL,ioos:station:DISL:MHPA:1,2011-09-01T04:00:00Z,30.6671,-87.9365,4.219,6.12,1111122 
DISL,ioos:station:DISL:MHPA:1,2011-09-01T04:30:00Z,30.6671,-87.9365,4.285,6.1,1111122 
DISL,ioos:station:DISL:MHPA:1,2011-09-01T05:00:00Z,30.6671,-87.9365,4.311,6.12,1111122 
DISL,ioos:station:DISL:MHPA:1,2011-09-01T05:30:00Z,30.6671,-87.9365,4.371,6.12,1111122 
DISL,ioos:station:DISL:MHPA:1,2011-09-01T06:00:00Z,30.6671,-87.9365,4.428,6.33,1111122 
DISL,ioos:station:DISL:MHPA:1,2011-09-01T06:30:00Z,30.6671,-87.9365,4.49,6.17,1111122 
DISL,ioos:station:DISL:MHPA:1,2011-09-01T07:00:00Z,30.6671,-87.9365,4.494,6.17,1111122 
DISL,ioos:station:DISL:MHPA:1,2011-09-01T07:30:00Z,30.6671,-87.9365,4.517,6.17,1111122 
DISL,ioos:station:DISL:MHPA:1,2011-09-01T08:00:00Z,30.6671,-87.9365,4.456,6.17,1111122 
DISL,ioos:station:DISL:MHPA:1,2011-09-01T08:30:00Z,30.6671,-87.9365,4.424,6.18,1111122 
DISL,ioos:station:DISL:MHPA:1,2011-09-01T09:00:00Z,30.6671,-87.9365,4.406,6.19,1111122 
DISL,ioos:station:DISL:MHPA:1,2011-09-01T09:30:00Z,30.6671,-87.9365,4.383,6.19,1111122 
DISL,ioos:station:DISL:MHPA:1,2011-09-01T10:00:00Z,30.6671,-87.9365,4.374,6.24,1111122 
DISL,ioos:station:DISL:MHPA:1,2011-09-01T10:30:00Z,30.6671,-87.9365,4.299,6.24,1111122 
DISL,ioos:station:DISL:MHPA:1,2011-09-01T11:00:00Z,30.6671,-87.9365,4.195,6.23,1111122 
DISL,ioos:station:DISL:MHPA:1,2011-09-01T11:30:00Z,30.6671,-87.9365,4.062,6.24,1111122 
DISL,ioos:station:DISL:MHPA:1,2011-09-01T12:00:00Z,30.6671,-87.9365,3.974,6.29,1111122 
DISL,ioos:station:DISL:MHPA:1,2011-09-01T12:30:00Z,30.6671,-87.9365,4.049,6.3,1111122 
DISL,ioos:station:DISL:MHPA:1,2011-09-01T13:00:00Z,30.6671,-87.9365,4.311,6.28,1111122 
DISL,ioos:station:DISL:MHPA:1,2011-09-01T13:30:00Z,30.6671,-87.9365,4.113,6.3,1111122 
DISL,ioos:station:DISL:MHPA:1,2011-09-01T14:00:00Z,30.6671,-87.9365,3.784,6.29,1111122 
DISL,ioos:station:DISL:MHPA:1,2011-09-01T14:30:00Z,30.6671,-87.9365,3.696,6.31,1111122 
DISL,ioos:station:DISL:MHPA:1,2011-09-01T15:00:00Z,30.6671,-87.9365,3.612,6.34,1111122 
DISL,ioos:station:DISL:MHPA:1,2011-09-01T15:30:00Z,30.6671,-87.9365,3.471,6.3,1111122 
DISL,ioos:station:DISL:MHPA:1,2011-09-01T16:00:00Z,30.6671,-87.9365,3.543,6.3,1111122 
DISL,ioos:station:DISL:MHPA:1,2011-09-01T16:30:00Z,30.6671,-87.9365,3.964,6.3,1111122 
DISL,ioos:station:DISL:MHPA:1,2011-09-01T17:00:00Z,30.6671,-87.9365,3.824,6.3,1111122 
DISL,ioos:station:DISL:MHPA:1,2011-09-01T17:30:00Z,30.6671,-87.9365,3.681,6.28,1111122 
DISL,ioos:station:DISL:MHPA:1,2011-09-01T18:00:00Z,30.6671,-87.9365,3.728,6.3,1111122 
DISL,ioos:station:DISL:MHPA:1,2011-09-01T18:30:00Z,30.6671,-87.9365,3.746,6.29,1111122 
DISL,ioos:station:DISL:MHPA:1,2011-09-01T19:00:00Z,30.6671,-87.9365,3.632,6.33,1111122 
DISL,ioos:station:DISL:MHPA:1,2011-09-01T19:30:00Z,30.6671,-87.9365,3.642,6.31,1111122 
DISL,ioos:station:DISL:MHPA:1,2011-09-01T20:00:00Z,30.6671,-87.9365,3.743,6.28,1111122 
DISL,ioos:station:DISL:MHPA:1,2011-09-01T20:30:00Z,30.6671,-87.9365,3.893,6.31,1111122 
DISL,ioos:station:DISL:MHPA:1,2011-09-01T21:00:00Z,30.6671,-87.9365,3.998,6.32,1111122 
DISL,ioos:station:DISL:MHPA:1,2011-09-01T21:30:00Z,30.6671,-87.9365,3.875,6.35,1111122 
DISL,ioos:station:DISL:MHPA:1,2011-09-01T22:00:00Z,30.6671,-87.9365,4.104,6.36,1111122 
DISL,ioos:station:DISL:MHPA:1,2011-09-01T22:30:00Z,30.6671,-87.9365,4.327,6.36,1111122 
DISL,ioos:station:DISL:MHPA:1,2011-09-01T23:00:00Z,30.6671,-87.9365,4.381,6.35,1111122 
DISL,ioos:station:DISL:MHPA:1,2011-09-01T23:30:00Z,30.6671,-87.9365,4.259,6.42,1111122 
DISL,ioos:station:DISL:MHPA:1,2011-09-02T00:00:00Z,30.6671,-87.9365,4.303,6.43,1111122 
DISL,ioos:station:DISL:MHPA:1,2011-09-02T00:30:00Z,30.6671,-87.9365,4.234,6.42,1111122 
DISL,ioos:station:DISL:MHPA:1,2011-09-02T01:00:00Z,30.6671,-87.9365,4.149,6.41,1111122 
DISL,ioos:station:DISL:MHPA:1,2011-09-02T01:30:00Z,30.6671,-87.9365,4.102,6.41,1111122 
DISL,ioos:station:DISL:MHPA:1,2011-09-02T02:00:00Z,30.6671,-87.9365,4.166,6.42,1111122 
DISL,ioos:station:DISL:MHPA:1,2011-09-02T02:30:00Z,30.6671,-87.9365,4.32,6.43,1111122 
DISL,ioos:station:DISL:MHPA:1,2011-09-02T03:00:00Z,30.6671,-87.9365,4.409,6.44,1111122 
DISL,ioos:station:DISL:MHPA:1,2011-09-02T03:30:00Z,30.6671,-87.9365,4.419,6.45,1111122 
DISL,ioos:station:DISL:MHPA:1,2011-09-02T04:00:00Z,30.6671,-87.9365,4.469,6.47,1111122 
DISL,ioos:station:DISL:MHPA:1,2011-09-02T04:30:00Z,30.6671,-87.9365,4.613,6.47,1111122 
DISL,ioos:station:DISL:MHPA:1,2011-09-02T05:00:00Z,30.6671,-87.9365,4.714,6.47,1111122 
DISL,ioos:station:DISL:MHPA:1,2011-09-02T05:30:00Z,30.6671,-87.9365,4.764,6.44,1111122 
DISL,ioos:station:DISL:MHPA:1,2011-09-02T06:00:00Z,30.6671,-87.9365,4.807,6.45,1111122 
DISL,ioos:station:DISL:MHPA:1,2011-09-02T06:30:00Z,30.6671,-87.9365,4.904,6.46,1111122 
DISL,ioos:station:DISL:MHPA:1,2011-09-02T07:00:00Z,30.6671,-87.9365,5.013,6.55,1111122 
DISL,ioos:station:DISL:MHPA:1,2011-09-02T07:30:00Z,30.6671,-87.9365,4.979,6.52,1111122 
DISL,ioos:station:DISL:MHPA:1,2011-09-02T08:00:00Z,30.6671,-87.9365,5.02,6.56,1111122 
DISL,ioos:station:DISL:MHPA:1,2011-09-02T08:30:00Z,30.6671,-87.9365,5.011,6.75,1111122 
DISL,ioos:station:DISL:MHPA:1,2011-09-02T09:00:00Z,30.6671,-87.9365,4.958,6.65,1111122 
DISL,ioos:station:DISL:MHPA:1,2011-09-02T09:30:00Z,30.6671,-87.9365,4.945,6.61,1111122 
DISL,ioos:station:DISL:MHPA:1,2011-09-02T10:00:00Z,30.6671,-87.9365,4.91,6.76,1111122 
DISL,ioos:station:DISL:MHPA:1,2011-09-02T10:30:00Z,30.6671,-87.9365,4.802,6.69,1111122 
DISL,ioos:station:DISL:MHPA:1,2011-09-02T11:00:00Z,30.6671,-87.9365,4.703,6.71,1111122 
DISL,ioos:station:DISL:MHPA:1,2011-09-02T11:30:00Z,30.6671,-87.9365,4.622,6.75,1111122 
DISL,ioos:station:DISL:MHPA:1,2011-09-02T12:00:00Z,30.6671,-87.9365,4.487,6.68,1111122 
DISL,ioos:station:DISL:MHPA:1,2011-09-02T12:30:00Z,30.6671,-87.9365,4.321,6.68,1111122 
DISL,ioos:station:DISL:MHPA:1,2011-09-02T13:00:00Z,30.6671,-87.9365,4.163,6.78,1111122 
DISL,ioos:station:DISL:MHPA:1,2011-09-02T13:30:00Z,30.6671,-87.9365,4.048,6.74,1111122 
DISL,ioos:station:DISL:MHPA:1,2011-09-02T14:00:00Z,30.6671,-87.9365,4.023,6.7,1111122 
DISL,ioos:station:DISL:MHPA:1,2011-09-02T14:30:00Z,30.6671,-87.9365,3.994,6.68,1111122 
DISL,ioos:station:DISL:MHPA:1,2011-09-02T15:00:00Z,30.6671,-87.9365,3.82,6.71,1111122 
DISL,ioos:station:DISL:MHPA:1,2011-09-02T15:30:00Z,30.6671,-87.9365,3.786,6.7,1111122 
DISL,ioos:station:DISL:MHPA:1,2011-09-02T16:00:00Z,30.6671,-87.9365,4.428,6.71,1111122 
DISL,ioos:station:DISL:MHPA:1,2011-09-02T16:30:00Z,30.6671,-87.9365,4.091,6.74,1111122 
DISL,ioos:station:DISL:MHPA:1,2011-09-02T17:00:00Z,30.6671,-87.9365,3.823,6.7,1111122 
DISL,ioos:station:DISL:MHPA:1,2011-09-02T17:30:00Z,30.6671,-87.9365,3.729,6.76,1111122 
DISL,ioos:station:DISL:MHPA:1,2011-09-02T18:00:00Z,30.6671,-87.9365,3.794,6.72,1111122 
DISL,ioos:station:DISL:MHPA:1,2011-09-02T18:30:00Z,30.6671,-87.9365,3.702,6.71,1111122 
DISL,ioos:station:DISL:MHPA:1,2011-09-02T19:00:00Z,30.6671,-87.9365,3.674,6.72,1111122 
DISL,ioos:station:DISL:MHPA:1,2011-09-02T19:30:00Z,30.6671,-87.9365,3.666,6.76,1111122 
DISL,ioos:station:DISL:MHPA:1,2011-09-02T20:00:00Z,30.6671,-87.9365,3.574,6.76,1111122 
DISL,ioos:station:DISL:MHPA:1,2011-09-02T20:30:00Z,30.6671,-87.9365,3.396,6.75,1111122 
DISL,ioos:station:DISL:MHPA:1,2011-09-02T21:00:00Z,30.6671,-87.9365,3.31,6.78,1111122 
DISL,ioos:station:DISL:MHPA:1,2011-09-02T21:30:00Z,30.6671,-87.9365,3.323,6.81,1111122 
DISL,ioos:station:DISL:MHPA:1,2011-09-02T22:00:00Z,30.6671,-87.9365,3.333,6.8,1111122 
DISL,ioos:station:DISL:MHPA:1,2011-09-02T22:30:00Z,30.6671,-87.9365,3.604,6.84,1111122 
DISL,ioos:station:DISL:MHPA:1,2011-09-02T23:00:00Z,30.6671,-87.9365,3.645,6.88,1111122 
DISL,ioos:station:DISL:MHPA:1,2011-09-02T23:30:00Z,30.6671,-87.9365,3.76,6.91,1111122 
DISL,ioos:station:DISL:MHPA:1,2011-09-03T00:00:00Z,30.6671,-87.9365,3.955,6.89,1111122 
DISL,ioos:station:DISL:MHPA:1,2011-09-03T00:30:00Z,30.6671,-87.9365,4.001,6.85,1111122 
DISL,ioos:station:DISL:MHPA:1,2011-09-03T01:00:00Z,30.6671,-87.9365,3.916,6.86,1111122 
DISL,ioos:station:DISL:MHPA:1,2011-09-03T01:30:00Z,30.6671,-87.9365,4.003,6.89,1111122 
DISL,ioos:station:DISL:MHPA:1,2011-09-03T02:00:00Z,30.6671,-87.9365,4.046,7.02,1111122 
DISL,ioos:station:DISL:MHPA:1,2011-09-03T02:30:00Z,30.6671,-87.9365,4.147,6.93,1111122 
DISL,ioos:station:DISL:MHPA:1,2011-09-03T03:00:00Z,30.6671,-87.9365,4.438,6.92,1111122 
DISL,ioos:station:DISL:MHPA:1,2011-09-03T03:30:00Z,30.6671,-87.9365,4.776,6.9,1111122 
DISL,ioos:station:DISL:MHPA:1,2011-09-03T04:00:00Z,30.6671,-87.9365,5.138,6.97,1111122 
DISL,ioos:station:DISL:MHPA:1,2011-09-03T04:30:00Z,30.6671,-87.9365,5.341,7.08,1111122 
DISL,ioos:station:DISL:MHPA:1,2011-09-03T05:00:00Z,30.6671,-87.9365,5.107,7.17,1111122 
DISL,ioos:station:DISL:MHPA:1,2011-09-03T05:30:00Z,30.6671,-87.9365,5.058,6.97,1111122 
DISL,ioos:station:DISL:MHPA:1,2011-09-03T06:00:00Z,30.6671,-87.9365,5.258,7.05,1111122 
DISL,ioos:station:DISL:MHPA:1,2011-09-03T06:30:00Z,30.6671,-87.9365,5.312,7.07,1111122 
DISL,ioos:station:DISL:MHPA:1,2011-09-03T07:00:00Z,30.6671,-87.9365,5.357,7.25,1111122 
DISL,ioos:station:DISL:MHPA:1,2011-09-03T07:30:00Z,30.6671,-87.9365,5.479,7.35,1111122 
DISL,ioos:station:DISL:MHPA:1,2011-09-03T08:00:00Z,30.6671,-87.9365,5.69,7.24,1111122 
DISL,ioos:station:DISL:MHPA:1,2011-09-03T08:30:00Z,30.6671,-87.9365,5.893,7.31,1111122 
DISL,ioos:station:DISL:MHPA:1,2011-09-03T09:00:00Z,30.6671,-87.9365,5.948,7.57,1111122 
DISL,ioos:station:DISL:MHPA:1,2011-09-03T09:30:00Z,30.6671,-87.9365,5.801,7.82,1111122 
DISL,ioos:station:DISL:MHPA:1,2011-09-03T10:00:00Z,30.6671,-87.9365,5.977,7.82,1111122 
DISL,ioos:station:DISL:MHPA:1,2011-09-03T10:30:00Z,30.6671,-87.9365,5.931,7.75,1111122 
DISL,ioos:station:DISL:MHPA:1,2011-09-03T11:00:00Z,30.6671,-87.9365,5.377,8.0,1111122 
DISL,ioos:station:DISL:MHPA:1,2011-09-03T11:30:00Z,30.6671,-87.9365,5.338,7.75,1111122 
DISL,ioos:station:DISL:MHPA:1,2011-09-03T12:00:00Z,30.6671,-87.9365,5.265,7.98,1111122 
DISL,ioos:station:DISL:MHPA:1,2011-09-03T12:30:00Z,30.6671,-87.9365,5.097,7.5,1111122 
DISL,ioos:station:DISL:MHPA:1,2011-09-03T13:00:00Z,30.6671,-87.9365,5.038,7.62,1111122 
DISL,ioos:station:DISL:MHPA:1,2011-09-03T13:30:00Z,30.6671,-87.9365,5.02,7.73,1111122 
DISL,ioos:station:DISL:MHPA:1,2011-09-03T14:00:00Z,30.6671,-87.9365,4.893,7.95,1111122 
DISL,ioos:station:DISL:MHPA:1,2011-09-03T14:30:00Z,30.6671,-87.9365,4.877,7.3,1111122 
DISL,ioos:station:DISL:MHPA:1,2011-09-03T15:00:00Z,30.6671,-87.9365,5.126,7.38,1111122 
DISL,ioos:station:DISL:MHPA:1,2011-09-03T15:30:00Z,30.6671,-87.9365,4.866,7.65,1111122 
DISL,ioos:station:DISL:MHPA:1,2011-09-03T16:00:00Z,30.6671,-87.9365,4.52,7.79,1111122 
DISL,ioos:station:DISL:MHPA:1,2011-09-03T16:30:00Z,30.6671,-87.9365,4.495,7.79,1111122 
DISL,ioos:station:DISL:MHPA:1,2011-09-03T17:00:00Z,30.6671,-87.9365,4.835,7.45,1111122 
DISL,ioos:station:DISL:MHPA:1,2011-09-03T17:30:00Z,30.6671,-87.9365,4.626,7.47,1111122 
DISL,ioos:station:DISL:MHPA:1,2011-09-03T18:00:00Z,30.6671,-87.9365,4.253,7.56,1111122 
DISL,ioos:station:DISL:MHPA:1,2011-09-03T18:30:00Z,30.6671,-87.9365,4.412,7.74,1111122 
DISL,ioos:station:DISL:MHPA:1,2011-09-03T19:00:00Z,30.6671,-87.9365,4.477,7.71,1111122 
DISL,ioos:station:DISL:MHPA:1,2011-09-03T19:30:00Z,30.6671,-87.9365,4.395,7.71,1111122 
DISL,ioos:station:DISL:MHPA:1,2011-09-03T20:00:00Z,30.6671,-87.9365,4.55,7.69,1111122 
DISL,ioos:station:DISL:MHPA:1,2011-09-03T20:30:00Z,30.6671,-87.9365,4.615,7.75,1111122 
DISL,ioos:station:DISL:MHPA:1,2011-09-03T21:00:00Z,30.6671,-87.9365,4.495,7.74,1111122 
DISL,ioos:station:DISL:MHPA:1,2011-09-03T21:30:00Z,30.6671,-87.9365,4.621,7.71,1111122 
DISL,ioos:station:DISL:MHPA:1,2011-09-03T22:00:00Z,30.6671,-87.9365,4.795,7.81,1111122 
DISL,ioos:station:DISL:MHPA:1,2011-09-03T22:30:00Z,30.6671,-87.9365,4.826,7.89,1111122 
DISL,ioos:station:DISL:MHPA:1,2011-09-03T23:00:00Z,30.6671,-87.9365,4.661,7.93,1111122 
DISL,ioos:station:DISL:MHPA:1,2011-09-03T23:30:00Z,30.6671,-87.9365,4.674,7.81,1111122 
DISL,ioos:station:DISL:MHPA:1,2011-09-04T00:00:00Z,30.6671,-87.9365,5.297,7.86,1111122 
DISL,ioos:station:DISL:MHPA:1,2011-09-04T00:30:00Z,30.6671,-87.9365,5.502,7.85,1111122 
DISL,ioos:station:DISL:MHPA:1,2011-09-04T01:00:00Z,30.6671,-87.9365,5.379,7.87,1111122 
DISL,ioos:station:DISL:MHPA:1,2011-09-04T01:30:00Z,30.6671,-87.9365,5.33,7.77,1111122 
DISL,ioos:station:DISL:MHPA:1,2011-09-04T02:00:00Z,30.6671,-87.9365,5.502,7.81,1111122 
DISL,ioos:station:DISL:MHPA:1,2011-09-04T02:30:00Z,30.6671,-87.9365,5.571,7.88,1111122 
DISL,ioos:station:DISL:MHPA:1,2011-09-04T03:00:00Z,30.6671,-87.9365,5.347,7.89,1111122 
DISL,ioos:station:DISL:MHPA:1,2011-09-04T03:30:00Z,30.6671,-87.9365,5.329,7.94,1111122 
DISL,ioos:station:DISL:MHPA:1,2011-09-04T04:00:00Z,30.6671,-87.9365,5.509,7.95,1111122 
DISL,ioos:station:DISL:MHPA:1,2011-09-04T04:30:00Z,30.6671,-87.9365,5.723,8.07,1111122 
DISL,ioos:station:DISL:MHPA:1,2011-09-04T05:00:00Z,30.6671,-87.9365,5.523,8.03,1111122 
DISL,ioos:station:DISL:MHPA:1,2011-09-04T05:30:00Z,30.6671,-87.9365,5.423,8.08,1111122 
DISL,ioos:station:DISL:MHPA:1,2011-09-04T06:00:00Z,30.6671,-87.9365,5.824,8.05,1111122 
DISL,ioos:station:DISL:MHPA:1,2011-09-04T06:30:00Z,30.6671,-87.9365,5.993,8.15,1111122 
DISL,ioos:station:DISL:MHPA:1,2011-09-04T07:00:00Z,30.6671,-87.9365,6.074,8.13,1111122 
DISL,ioos:station:DISL:MHPA:1,2011-09-04T07:30:00Z,30.6671,-87.9365,6.492,8.16,1111122 
DISL,ioos:station:DISL:MHPA:1,2011-09-04T08:00:00Z,30.6671,-87.9365,6.633,8.13,1111122 
DISL,ioos:station:DISL:MHPA:1,2011-09-04T08:30:00Z,30.6671,-87.9365,6.533,8.72,1111122 
DISL,ioos:station:DISL:MHPA:1,2011-09-04T09:00:00Z,30.6671,-87.9365,6.431,8.77,1111122 
DISL,ioos:station:DISL:MHPA:1,2011-09-04T09:30:00Z,30.6671,-87.9365,6.446,8.72,1111122 
DISL,ioos:station:DISL:MHPA:1,2011-09-04T10:00:00Z,30.6671,-87.9365,6.749,8.68,1111122 
DISL,ioos:station:DISL:MHPA:1,2011-09-04T10:30:00Z,30.6671,-87.9365,6.734,9.33,1111122 
DISL,ioos:station:DISL:MHPA:1,2011-09-04T11:00:00Z,30.6671,-87.9365,6.508,9.16,1111122 
DISL,ioos:station:DISL:MHPA:1,2011-09-04T11:30:00Z,30.6671,-87.9365,6.46,9.16,1111122 
DISL,ioos:station:DISL:MHPA:1,2011-09-04T12:00:00Z,30.6671,-87.9365,6.881,9.24,1111122 
DISL,ioos:station:DISL:MHPA:1,2011-09-04T12:30:00Z,30.6671,-87.9365,6.781,9.03,1111122 
DISL,ioos:station:DISL:MHPA:1,2011-09-04T13:00:00Z,30.6671,-87.9365,6.515,8.95,1111122 
DISL,ioos:station:DISL:MHPA:1,2011-09-04T13:30:00Z,30.6671,-87.9365,6.274,8.71,1111122 
DISL,ioos:station:DISL:MHPA:1,2011-09-04T14:00:00Z,30.6671,-87.9365,6.142,8.81,1111122 
DISL,ioos:station:DISL:MHPA:1,2011-09-04T14:30:00Z,30.6671,-87.9365,6.038,9.34,1111122 
DISL,ioos:station:DISL:MHPA:1,2011-09-04T15:00:00Z,30.6671,-87.9365,5.74,8.42,1111122 
DISL,ioos:station:DISL:MHPA:1,2011-09-04T15:30:00Z,30.6671,-87.9365,5.546,8.91,1111122 
DISL,ioos:station:DISL:MHPA:1,2011-09-04T16:00:00Z,30.6671,-87.9365,5.454,8.73,1111122 
DISL,ioos:station:DISL:MHPA:1,2011-09-04T16:30:00Z,30.6671,-87.9365,5.535,8.62,1111122 
DISL,ioos:station:DISL:MHPA:1,2011-09-04T17:00:00Z,30.6671,-87.9365,5.534,8.59,1111122 
DISL,ioos:station:DISL:MHPA:1,2011-09-04T17:30:00Z,30.6671,-87.9365,5.526,8.42,1111122 
DISL,ioos:station:DISL:MHPA:1,2011-09-04T18:00:00Z,30.6671,-87.9365,5.449,8.58,1111122 
DISL,ioos:station:DISL:MHPA:1,2011-09-04T18:30:00Z,30.6671,-87.9365,5.511,8.8,1111122 
DISL,ioos:station:DISL:MHPA:1,2011-09-04T19:00:00Z,30.6671,-87.9365,5.267,8.56,1111122 
DISL,ioos:station:DISL:MHPA:1,2011-09-04T19:30:00Z,30.6671,-87.9365,5.289,8.77,1111122 
DISL,ioos:station:DISL:MHPA:1,2011-09-04T20:00:00Z,30.6671,-87.9365,5.327,8.69,1111122 
DISL,ioos:station:DISL:MHPA:1,2011-09-04T20:30:00Z,30.6671,-87.9365,5.471,8.62,1111122 
DISL,ioos:station:DISL:MHPA:1,2011-09-04T21:00:00Z,30.6671,-87.9365,5.018,8.77,1111122 
DISL,ioos:station:DISL:MHPA:1,2011-09-04T21:30:00Z,30.6671,-87.9365,4.812,8.8,1111122 
DISL,ioos:station:DISL:MHPA:1,2011-09-04T22:00:00Z,30.6671,-87.9365,5.009,8.64,1111122 
DISL,ioos:station:DISL:MHPA:1,2011-09-04T22:30:00Z,30.6671,-87.9365,4.676,8.81,1111122 
DISL,ioos:station:DISL:MHPA:1,2011-09-04T23:00:00Z,30.6671,-87.9365,4.588,8.3,1111122 
DISL,ioos:station:DISL:MHPA:1,2011-09-04T23:30:00Z,30.6671,-87.9365,4.545,8.45,1111122 
DISL,ioos:station:DISL:MHPA:1,2011-09-05T00:00:00Z,30.6671,-87.9365,4.675,8.55,1111122 
DISL,ioos:station:DISL:MHPA:1,2011-09-05T00:30:00Z,30.6671,-87.9365,4.99,8.7,1111122 
DISL,ioos:station:DISL:MHPA:1,2011-09-05T01:00:00Z,30.6671,-87.9365,4.979,8.66,1111122 
DISL,ioos:station:DISL:MHPA:1,2011-09-05T01:30:00Z,30.6671,-87.9365,4.878,8.45,1111122 
DISL,ioos:station:DISL:MHPA:1,2011-09-05T02:00:00Z,30.6671,-87.9365,4.896,8.56,1111122 
DISL,ioos:station:DISL:MHPA:1,2011-09-05T02:30:00Z,30.6671,-87.9365,5.072,8.72,1111122 
DISL,ioos:station:DISL:MHPA:1,2011-09-05T03:00:00Z,30.6671,-87.9365,5.112,8.95,1111122 
DISL,ioos:station:DISL:MHPA:1,2011-09-05T03:30:00Z,30.6671,-87.9365,5.064,8.86,1111122 
DISL,ioos:station:DISL:MHPA:1,2011-09-05T04:00:00Z,30.6671,-87.9365,5.2,8.88,1111122 
DISL,ioos:station:DISL:MHPA:1,2011-09-05T04:30:00Z,30.6671,-87.9365,5.222,8.75,1111122 
DISL,ioos:station:DISL:MHPA:1,2011-09-05T05:00:00Z,30.6671,-87.9365,5.452,8.74,1111122 
DISL,ioos:station:DISL:MHPA:1,2011-09-05T05:30:00Z,30.6671,-87.9365,5.6,8.8,1111122 
DISL,ioos:station:DISL:MHPA:1,2011-09-05T06:00:00Z,30.6671,-87.9365,5.717,8.95,1111122 
DISL,ioos:station:DISL:MHPA:1,2011-09-05T06:30:00Z,30.6671,-87.9365,5.866,8.79,1111122 
DISL,ioos:station:DISL:MHPA:1,2011-09-05T07:00:00Z,30.6671,-87.9365,5.887,8.73,1111122 
DISL,ioos:station:DISL:MHPA:1,2011-09-05T07:30:00Z,30.6671,-87.9365,5.853,8.81,1111122 
DISL,ioos:station:DISL:MHPA:1,2011-09-05T08:00:00Z,30.6671,-87.9365,6.063,9.12,1111122 
DISL,ioos:station:DISL:MHPA:1,2011-09-05T08:30:00Z,30.6671,-87.9365,6.167,8.91,1111122 
DISL,ioos:station:DISL:MHPA:1,2011-09-05T09:00:00Z,30.6671,-87.9365,6.237,8.93,1111122 
DISL,ioos:station:DISL:MHPA:1,2011-09-05T09:30:00Z,30.6671,-87.9365,6.464,8.82,1111122 
DISL,ioos:station:DISL:MHPA:1,2011-09-05T10:00:00Z,30.6671,-87.9365,6.632,8.91,1111122 
DISL,ioos:station:DISL:MHPA:1,2011-09-05T10:30:00Z,30.6671,-87.9365,6.661,9.84,1111122 
DISL,ioos:station:DISL:MHPA:1,2011-09-05T11:00:00Z,30.6671,-87.9365,6.811,9.82,1111122 
DISL,ioos:station:DISL:MHPA:1,2011-09-05T11:30:00Z,30.6671,-87.9365,6.76,10.21,1111122 
DISL,ioos:station:DISL:MHPA:1,2011-09-05T12:00:00Z,30.6671,-87.9365,6.833,9.95,1111122 
DISL,ioos:station:DISL:MHPA:1,2011-09-05T12:30:00Z,30.6671,-87.9365,6.905,10.3,1111122 
DISL,ioos:station:DISL:MHPA:1,2011-09-05T13:00:00Z,30.6671,-87.9365,6.893,10.43,1111122 
DISL,ioos:station:DISL:MHPA:1,2011-09-05T13:30:00Z,30.6671,-87.9365,7.03,8.91,1111122 
DISL,ioos:station:DISL:MHPA:1,2011-09-05T14:00:00Z,30.6671,-87.9365,7.3,9.03,1111122 
DISL,ioos:station:DISL:MHPA:1,2011-09-05T14:30:00Z,30.6671,-87.9365,7.2,8.99,1111122 
DISL,ioos:station:DISL:MHPA:1,2011-09-05T15:00:00Z,30.6671,-87.9365,7.37,10.88,1111122 
DISL,ioos:station:DISL:MHPA:1,2011-09-05T15:30:00Z,30.6671,-87.9365,7.1,10.62,1111122 
DISL,ioos:station:DISL:MHPA:1,2011-09-05T16:00:00Z,30.6671,-87.9365,7.45,8.72,1111122 
DISL,ioos:station:DISL:MHPA:1,2011-09-05T16:30:00Z,30.6671,-87.9365,7.68,10.08,1111122 
DISL,ioos:station:DISL:MHPA:1,2011-09-05T17:00:00Z,30.6671,-87.9365,7.9,10.09,1111122 
DISL,ioos:station:DISL:MHPA:1,2011-09-05T17:30:00Z,30.6671,-87.9365,7.64,9.78,1111122 
DISL,ioos:station:DISL:MHPA:1,2011-09-05T18:00:00Z,30.6671,-87.9365,7.47,9.53,1111122 
DISL,ioos:station:DISL:MHPA:1,2011-09-05T18:30:00Z,30.6671,-87.9365,7.48,9.78,1111122 
DISL,ioos:station:DISL:MHPA:1,2011-09-05T19:00:00Z,30.6671,-87.9365,7.26,10.11,1111122 
DISL,ioos:station:DISL:MHPA:1,2011-09-05T19:30:00Z,30.6671,-87.9365,6.829,9.86,1111122 
DISL,ioos:station:DISL:MHPA:1,2011-09-05T20:00:00Z,30.6671,-87.9365,6.226,10.44,1111122 
DISL,ioos:station:DISL:MHPA:1,2011-09-05T20:30:00Z,30.6671,-87.9365,5.716,10.63,1111122 
DISL,ioos:station:DISL:MHPA:1,2011-09-05T21:00:00Z,30.6671,-87.9365,5.274,9.96,1111122 
DISL,ioos:station:DISL:MHPA:1,2011-09-05T21:30:00Z,30.6671,-87.9365,4.961,10.19,1111122 
DISL,ioos:station:DISL:MHPA:1,2011-09-05T22:00:00Z,30.6671,-87.9365,4.541,10.29,1111122 
DISL,ioos:station:DISL:MHPA:1,2011-09-05T22:30:00Z,30.6671,-87.9365,4.168,10.67,1111122 
DISL,ioos:station:DISL:MHPA:1,2011-09-05T23:00:00Z,30.6671,-87.9365,3.925,10.91,1111122 
DISL,ioos:station:DISL:MHPA:1,2011-09-05T23:30:00Z,30.6671,-87.9365,3.965,10.98,1111122 
DISL,ioos:station:DISL:MHPA:1,2011-09-06T00:00:00Z,30.6671,-87.9365,3.939,11.17,1111122 
DISL,ioos:station:DISL:MHPA:1,2011-09-06T00:30:00Z,30.6671,-87.9365,3.879,11.31,1111122 
DISL,ioos:station:DISL:MHPA:1,2011-09-06T01:00:00Z,30.6671,-87.9365,3.916,11.47,1111122 
DISL,ioos:station:DISL:MHPA:1,2011-09-06T01:30:00Z,30.6671,-87.9365,3.898,11.64,1111122 
DISL,ioos:station:DISL:MHPA:1,2011-09-06T02:00:00Z,30.6671,-87.9365,3.847,11.72,1111122 
DISL,ioos:station:DISL:MHPA:1,2011-09-06T02:30:00Z,30.6671,-87.9365,3.66,11.82,1111122 
DISL,ioos:station:DISL:MHPA:1,2011-09-06T03:00:00Z,30.6671,-87.9365,3.559,11.9,1111122 
DISL,ioos:station:DISL:MHPA:1,2011-09-06T03:30:00Z,30.6671,-87.9365,3.478,12.01,1111122 
DISL,ioos:station:DISL:MHPA:1,2011-09-06T04:00:00Z,30.6671,-87.9365,3.363,12.08,1111122 
DISL,ioos:station:DISL:MHPA:1,2011-09-06T04:30:00Z,30.6671,-87.9365,3.267,12.11,1111122 
DISL,ioos:station:DISL:MHPA:1,2011-09-06T05:00:00Z,30.6671,-87.9365,3.235,12.16,1111122 
DISL,ioos:station:DISL:MHPA:1,2011-09-06T05:30:00Z,30.6671,-87.9365,3.291,12.19,1111122 
DISL,ioos:station:DISL:MHPA:1,2011-09-06T06:00:00Z,30.6671,-87.9365,3.41,12.13,1111122 
DISL,ioos:station:DISL:MHPA:1,2011-09-06T06:30:00Z,30.6671,-87.9365,3.454,12.16,1111122 
DISL,ioos:station:DISL:MHPA:1,2011-09-06T07:00:00Z,30.6671,-87.9365,3.628,12.17,1111122 
DISL,ioos:station:DISL:MHPA:1,2011-09-06T07:30:00Z,30.6671,-87.9365,3.718,12.19,1111122 
DISL,ioos:station:DISL:MHPA:1,2011-09-06T08:00:00Z,30.6671,-87.9365,3.872,12.17,1111122 
DISL,ioos:station:DISL:MHPA:1,2011-09-06T08:30:00Z,30.6671,-87.9365,4.005,12.23,1111122 
DISL,ioos:station:DISL:MHPA:1,2011-09-06T09:00:00Z,30.6671,-87.9365,4.188,12.21,1111122 
DISL,ioos:station:DISL:MHPA:1,2011-09-06T09:30:00Z,30.6671,-87.9365,4.341,12.19,1111122 
DISL,ioos:station:DISL:MHPA:1,2011-09-06T10:00:00Z,30.6671,-87.9365,4.477,12.18,1111122 
DISL,ioos:station:DISL:MHPA:1,2011-09-06T10:30:00Z,30.6671,-87.9365,4.608,12.18,1111122 
DISL,ioos:station:DISL:MHPA:1,2011-09-06T11:00:00Z,30.6671,-87.9365,4.656,12.15,1111122 
DISL,ioos:station:DISL:MHPA:1,2011-09-06T11:30:00Z,30.6671,-87.9365,4.702,12.16,1111122 
DISL,ioos:station:DISL:MHPA:1,2011-09-06T12:00:00Z,30.6671,-87.9365,4.855,12.19,1111122 
DISL,ioos:station:DISL:MHPA:1,2011-09-06T12:30:00Z,30.6671,-87.9365,4.815,12.13,1111122 
DISL,ioos:station:DISL:MHPA:1,2011-09-06T13:00:00Z,30.6671,-87.9365,4.829,12.13,1111122 
DISL,ioos:station:DISL:MHPA:1,2011-09-06T13:30:00Z,30.6671,-87.9365,4.866,12.16,1111122 
DISL,ioos:station:DISL:MHPA:1,2011-09-06T14:00:00Z,30.6671,-87.9365,4.884,12.27,1111122 
DISL,ioos:station:DISL:MHPA:1,2011-09-06T14:30:00Z,30.6671,-87.9365,4.849,12.18,1111122 
DISL,ioos:station:DISL:MHPA:1,2011-09-06T15:00:00Z,30.6671,-87.9365,4.794,12.19,1111122 